Livingston, MT

11:31 AM MST on November 21, 2017 (GMT -0700)
Mission

Weather History for KLVM - November, 2011

Change the Weather History Date:

Sunday, November 27, 2011

  Actual Average Record
Temperature  
Mean Temperature 44 °F 29 °F  
Max Temperature 50 °F 38 °F 64 °F (1950)
Min Temperature 37 °F 20 °F -11 °F (1985)
Degree Days  
Heating Degree Days 22 36  
Month to date heating degree days 823  
Since 1 July heating degree days 1851  
Cooling Degree Days 0 0  
Month to date cooling degree days 0  
Year to date cooling degree days 230  
Moisture  
Dew Point 8 °F    
Average Humidity 23    
Maximum Humidity 33    
Minimum Humidity 16    
Precipitation  
Precipitation 0.00 in 0.02 in 0.59 in (1991)
Month to date precipitation 0.53  
Year to date precipitation 14.23  
Sea Level Pressure  
Sea Level Pressure 30.16 in    
Wind  
Wind Speed 35 mph (SW)    
Max Wind Speed 45 mph    
Max Gust Speed 68 mph    
Visibility 10 miles    
Events      
T = Trace of Precipitation, MM = Missing Value Source: NWS Daily Summary

Daily Weather History Graph

Daily Weather History Graph

Search for Another Location

Airport or City:

Trip Planner

Search our weather history database for the weather conditions in past years. The results will help you decide how hot, cold, wet, or windy it might be!

Date:

Astronomy

Nov. 27, 2011 Rise Set
Actual Time 7:37 AM MST 4:41 PM MST
Civil Twilight 7:03 AM MST 5:14 PM MST
Nautical Twilight 6:26 AM MST 5:51 PM MST
Astronomical Twilight 5:51 AM MST 6:27 PM MST
Moon 10:06 AM MST (11/27) 7:23 PM MST (11/27)
Length of Visible Light 10h 10m
Length of Day
9h 04m
Waxing Crescent, 9% of the Moon is Illuminated
Nov 27
Waxing Crescent
Dec 2
First Quarter
Dec 10
Full
Dec 17
Last Quarter
Dec 24
New

Hourly Weather History & Observations

Time (MST) Temp. Windchill Dew Point Humidity Pressure Visibility Wind Dir Wind Speed Gust Speed Precip Events Conditions
12:53 AM 39.0 °F 27.2 °F 10.9 °F 32% 30.41 in 10.0 mi SW 29.9 mph 47.2 mph N/A   Clear
1:53 AM 37.9 °F 25.1 °F 10.9 °F 33% 30.40 in 10.0 mi SW 33.4 mph 48.3 mph N/A   Clear
2:53 AM 37.9 °F 26.3 °F 10.0 °F 32% 30.36 in 10.0 mi West 26.5 mph 43.7 mph N/A   Clear
3:53 AM 37.9 °F 25.7 °F 10.0 °F 32% 30.35 in 10.0 mi WSW 29.9 mph 36.8 mph N/A   Clear
4:53 AM 37.9 °F 25.9 °F 9.0 °F 30% 30.30 in 10.0 mi SW 28.8 mph 41.4 mph N/A   Clear
5:53 AM 37.0 °F 24.1 °F 8.1 °F 30% 30.31 in 10.0 mi WSW 32.2 mph 52.9 mph N/A   Clear
6:53 AM 37.9 °F 25.3 °F 8.1 °F 29% 30.29 in 10.0 mi SW 32.2 mph 47.2 mph N/A   Clear
7:53 AM 41.0 °F 29.0 °F 10.4 °F 29% 30.23 in 10.0 mi SW 35.7 mph 51.8 mph N/A   Clear
8:53 AM 43.0 °F 30.5 °F 9.0 °F 25% 30.25 in 10.0 mi SSW 44.9 mph 57.5 mph N/A   Clear
9:53 AM 43.0 °F 31.1 °F 7.0 °F 23% 30.23 in 10.0 mi SSW 40.3 mph 57.5 mph N/A   Clear
10:00 AM 42.8 °F 30.5 °F 6.8 °F 23% 30.21 in 10.0 mi SSW 42.6 mph 62.1 mph N/A   Squalls
10:53 AM 46.0 °F 35.8 °F 6.1 °F 20% 30.21 in 10.0 mi SSW 36.8 mph 50.6 mph N/A   Clear
11:53 AM 48.0 °F - 5.0 °F 17% 30.17 in 10.0 mi SW 29.9 mph 52.9 mph N/A   Clear
12:53 PM 50.0 °F - 5.0 °F 16% 30.10 in 10.0 mi SSW 41.4 mph 55.2 mph N/A   Clear
1:53 PM 48.9 °F - 5.0 °F 17% 30.05 in 10.0 mi SSW 44.9 mph 63.3 mph N/A   Clear
2:53 PM 50.0 °F - 7.0 °F 18% 30.03 in 10.0 mi SW 43.7 mph 67.9 mph N/A   Clear
3:53 PM 50.0 °F - 8.1 °F 18% 30.02 in 10.0 mi SW 44.9 mph 56.4 mph N/A   Clear
4:53 PM 50.0 °F - 8.1 °F 18% 30.02 in 10.0 mi SW 43.7 mph 57.5 mph N/A   Clear
5:53 PM 50.0 °F - 8.1 °F 18% 30.01 in 10.0 mi SW 42.6 mph 58.7 mph N/A   Clear
6:53 PM 48.9 °F - 8.1 °F 19% 30.01 in 10.0 mi WSW 32.2 mph 51.8 mph N/A   Clear
7:53 PM 48.0 °F - 8.1 °F 20% 30.02 in 10.0 mi SSW 44.9 mph 55.2 mph N/A   Clear
8:53 PM 48.9 °F - 9.0 °F 20% 30.01 in 10.0 mi SW 43.7 mph 57.5 mph N/A   Clear
9:53 PM 48.0 °F - 9.0 °F 21% 30.02 in 10.0 mi SSW 40.3 mph 55.2 mph N/A   Clear
10:53 PM 46.9 °F - 10.0 °F 22% 30.01 in 10.0 mi SSW 41.4 mph 54.1 mph N/A   Clear
11:53 PM 46.9 °F - 10.0 °F 22% 29.99 in 10.0 mi SSW 28.8 mph 46.0 mph N/A   Clear